Wind_Speed
8 8 9 10 11 12 14 15 17 19 20 22 24 25 27 28 29 30 31 33 33 34 34 35 35 36 36 37 37 38 39 40 40 40 40 38 36 34 31 28 27 26 27
9 10 11 12 14 16 18 19 21 23 25 26 28 29 30 32 33 34 35 37 38 38 39 40 40 40 40 40 40 40 40 40 41 42 43 43 41 40 37 34 32 30 30
10 12 14 16 18 20 22 24 25 27 29 30 31 33 34 35 36 38 39 40 42 42 43 44 45 45 45 45 44 44 44 43 43 44 45 45 45 45 43 41 38 35 34
14 16 18 20 22 24 25 27 29 30 32 33 34 36 37 39 40 42 43 44 45 47 48 48 49 50 50 50 49 49 49 48 47 47 48 47 48 48 47 46 44 41 39
18 20 22 23 25 27 28 30 31 33 34 35 37 39 40 42 43 45 46 48 49 50 51 52 53 54 54 54 54 54 54 53 52 52 52 51 50 51 51 50 49 47 44
21 23 24 26 27 28 30 31 33 34 36 38 39 41 43 45 46 48 50 51 53 54 55 56 57 58 59 59 59 59 59 58 57 57 57 56 55 54 54 53 53 51 50
24 25 26 27 28 30 31 33 35 36 38 40 42 44 46 48 50 52 54 55 57 59 60 61 63 64 64 65 65 65 64 64 63 62 62 62 61 60 59 57 56 55 54
25 26 27 28 30 32 34 35 37 39 41 42 45 47 49 51 54 56 59 61 63 65 67 69 70 71 72 72 72 72 71 70 69 68 68 67 66 66 64 62 60 58 57
26 27 28 30 32 34 36 38 40 42 43 46 48 50 53 56 59 62 65 68 70 73 75 77 78 80 80 81 81 80 79 78 76 75 73 72 72 71 70 68 66 63 61
27 28 30 32 34 36 38 40 42 44 46 48 51 54 57 61 64 67 71 74 77 80 82 85 87 88 89 89 89 89 88 86 84 82 80 78 78 77 76 74 72 70 67
28 30 32 34 36 38 40 42 44 46 49 52 55 58 61 65 69 72 76 79 83 86 89 92 94 96 98 98 99 99 98 96 94 91 88 86 84 82 81 79 78 76 73
29 32 34 36 38 40 42 44 46 49 52 55 58 62 65 69 73 76 80 84 87 91 95 98 102 104 106 107 108 108 108 106 104 101 97 94 91 89 87 85 83 81 79
31 33 36 38 40 42 44 46 49 52 55 58 62 65 69 72 76 80 84 88 92 96 101 105 108 110 111 112 112 112 112 112 111 109 106 103 99 97 94 91 89 87 85
33 35 38 40 42 44 47 49 52 55 58 61 65 68 71 75 79 83 88 92 97 102 105 108 109 109 108 107 106 106 106 107 109 110 110 109 107 104 101 98 95 93 91
35 37 39 42 44 46 49 51 54 57 61 64 68 71 74 78 82 87 91 96 101 103 105 104 102 98 95 92 90 89 90 93 96 100 105 108 109 108 107 105 102 99 96
37 39 42 44 46 48 51 53 56 59 63 66 70 73 76 80 85 90 95 99 101 101 98 93 88 84 81 80 80 80 81 82 85 88 93 99 104 107 109 108 107 105 102
39 41 43 46 48 50 52 55 58 62 65 68 71 75 79 83 88 93 97 99 97 92 88 83 80 79 78 78 78 79 80 81 82 84 86 90 95 101 106 109 110 110 108
41 43 45 47 49 52 54 57 60 63 67 70 73 77 81 86 91 95 97 94 90 85 81 79 78 77 77 78 78 78 78 80 82 84 85 87 89 94 99 105 109 112 112
42 44 46 48 51 53 55 58 62 65 68 71 74 78 83 88 92 94 93 88 84 79 77 77 76 77 76 75 74 72 72 73 75 77 81 85 87 89 94 99 106 111 115
43 45 47 49 52 54 56 60 63 66 69 72 76 80 85 89 92 91 87 84 79 76 76 75 75 74 73 73 70 68 66 66 67 69 72 78 82 86 90 95 102 108 114
43 46 48 50 52 55 57 60 64 67 70 73 77 82 86 89 91 88 84 79 76 74 74 73 74 71 70 70 67 62 58 56 56 59 63 68 74 82 87 92 98 105 111
44 46 48 50 53 55 58 61 64 68 71 74 78 83 86 89 88 84 80 76 74 73 72 72 71 70 67 65 64 61 54 44 43 46 52 59 68 76 83 88 94 100 107
45 47 49 51 53 56 59 62 65 68 71 75 79 83 86 87 84 81 77 74 73 72 71 70 69 68 65 60 58 57 52 42 33 32 40 49 60 69 76 83 88 94 102
47 49 51 53 55 57 60 63 66 69 72 75 79 83 85 84 82 78 75 72 72 71 69 68 67 66 63 58 53 48 45 40 32 23 28 39 52 63 70 76 81 87 95
49 52 54 55 57 59 61 64 67 70 72 76 80 82 83 81 79 76 73 71 70 69 68 67 65 63 60 56 50 44 38 34 29 22 20 30 43 55 64 69 74 79 86
52 55 57 59 60 61 63 66 68 70 73 76 79 81 81 79 76 73 71 70 69 68 66 65 64 61 57 52 46 40 36 31 26 20 16 22 34 47 56 62 67 72 78
Wind_Direction
354 347 340 332 325 320 315 312 309 306 304 302 300 298 297 296 294 293 292 291 290 288 286 284 283 281 279 278 276 273 270 268 267 266 264 262 261 259 255 251 247 243 240
346 336 327 320 316 313 310 308 305 303 301 300 298 297 296 294 293 292 291 290 289 287 286 284 282 280 278 276 275 273 271 269 267 265 263 261 260 258 256 253 249 245 242
328 320 315 312 310 309 307 305 304 303 301 300 299 298 296 295 294 292 291 289 288 286 285 284 282 280 278 276 274 272 270 268 266 265 263 261 259 258 256 253 250 247 243
316 313 311 310 309 308 307 306 305 304 303 302 300 299 297 296 295 293 291 290 288 286 285 283 281 279 277 275 273 271 268 266 265 263 262 260 259 257 255 253 251 248 245
312 311 311 310 310 309 308 307 306 305 304 302 301 299 298 296 295 294 292 291 289 287 285 283 281 279 277 275 273 270 268 265 263 261 260 259 258 256 254 253 251 249 246
312 311 311 311 311 310 309 308 306 305 303 302 300 299 298 297 296 295 293 291 290 288 286 284 282 279 277 275 273 270 268 265 262 260 258 257 256 255 253 252 250 249 246
311 311 311 311 311 310 309 308 306 305 304 303 302 301 300 299 298 297 295 294 292 290 288 286 284 282 279 276 273 270 268 265 262 260 257 255 254 253 252 250 249 248 246
312 312 312 313 312 311 311 310 308 308 307 306 305 304 303 302 301 300 298 297 295 292 290 288 286 284 281 278 275 272 269 266 262 259 257 255 252 250 249 248 247 246 245
313 314 314 314 313 313 312 311 311 310 309 308 308 307 306 305 304 302 301 299 297 295 293 290 288 285 283 280 277 274 270 266 263 260 256 254 252 249 248 246 245 244 243
314 315 315 315 315 314 313 313 312 311 311 311 310 309 308 307 306 304 302 301 298 296 294 292 289 287 284 281 278 275 271 267 263 260 256 253 251 249 246 245 243 242 241
316 316 316 316 316 315 315 314 314 313 313 313 312 311 309 308 306 304 302 301 298 296 294 292 289 287 284 281 278 275 272 268 264 260 256 253 250 248 246 243 241 240 239
317 317 317 317 317 316 316 316 316 315 315 314 312 311 309 307 306 304 302 301 299 297 294 292 290 288 285 282 280 277 273 269 265 261 256 253 250 246 244 242 240 239 237
318 318 319 319 319 318 318 318 317 316 315 314 312 311 309 307 306 304 303 301 299 297 295 293 290 289 287 284 281 278 275 271 267 262 257 253 249 246 243 241 239 237 236
320 320 320 320 320 320 319 318 317 316 315 313 312 311 309 308 307 306 304 302 300 298 296 294 292 290 288 285 282 279 276 272 267 263 259 254 250 246 242 239 237 236 234
322 322 322 322 321 320 319 318 317 316 315 314 313 312 311 309 308 307 306 304 302 300 298 297 295 292 289 286 282 278 274 270 267 263 258 254 250 246 242 238 236 234 233
323 323 323 322 321 320 319 318 317 316 316 315 314 313 312 311 310 309 308 306 305 304 302 301 299 296 292 288 284 279 275 270 265 260 256 252 249 245 241 237 234 232 230
324 324 323 322 321 321 320 319 318 317 317 316 316 315 314 313 312 311 310 310 309 308 307 305 303 300 297 293 289 283 278 272 266 260 255 250 246 243 239 236 232 230 228
325 324 323 323 322 321 320 320 319 319 319 318 318 317 317 316 315 315 314 314 313 313 311 309 307 305 302 298 293 288 282 275 267 260 254 249 244 240 237 234 231 228 226
326 325 324 324 323 322 322 321 321 321 321 321 320 320 319 319 319 318 318 318 317 316 315 313 311 309 306 303 298 293 287 279 271 262 254 248 243 238 234 231 229 226 224
327 326 325 325 324 324 323 322 322 323 323 323 322 322 322 322 322 322 322 321 321 320 318 317 315 313 311 308 305 300 293 284 273 263 253 246 240 236 232 229 226 224 222
329 328 327 326 326 325 325 325 325 325 325 325 325 324 324 325 325 325 325 325 324 323 322 320 319 318 317 314 311 307 302 292 279 264 252 243 237 233 229 226 224 222 220
333 331 330 329 328 327 327 327 327 327 327 327 327 327 327 328 328 328 328 328 327 326 325 324 324 323 322 320 318 316 312 302 286 267 251 240 233 229 227 225 222 220 218
338 336 334 332 331 330 330 330 330 330 329 329 329 330 330 331 331 331 331 330 330 329 329 329 328 327 327 326 324 323 322 317 300 273 252 237 230 226 224 223 221 219 217
344 341 339 337 335 334 333 332 332 332 332 332 332 332 333 334 334 334 333 333 333 333 332 332 332 331 330 330 328 327 327 326 319 289 256 237 228 224 222 221 220 218 217
347 346 344 342 340 337 336 335 335 335 334 334 335 335 336 336 336 336 336 335 335 335 335 335 335 334 333 332 331 330 330 331 327 310 269 241 228 222 220 219 218 218 217
348 348 347 346 343 341 339 338 337 337 336 336 337 338 339 339 339 338 338 338 338 338 337 338 338 337 336 334 332 331 332 333 332 321 287 248 231 222 219 218 217 217 217
Height
5877 5876 5876 5876 5875 5874 5873 5872 5871 5870 5869 5867 5866 5864 5863 5861 5860 5858 5857 5856 5855 5854 5853 5852 5852 5851 5851 5851 5851 5852 5853 5854 5855 5856 5857 5858 5860 5862 5864 5866 5867 5868 5869
5876 5876 5875 5874 5873 5872 5871 5870 5868 5867 5865 5864 5862 5860 5859 5857 5855 5854 5852 5850 5849 5848 5846 5845 5845 5845 5844 5844 5844 5845 5845 5846 5847 5848 5849 5851 5853 5855 5858 5860 5862 5863 5864
5875 5874 5873 5872 5871 5869 5868 5866 5864 5863 5861 5859 5857 5855 5853 5851 5849 5847 5846 5844 5842 5841 5839 5838 5837 5836 5836 5836 5836 5836 5837 5838 5839 5839 5840 5842 5844 5846 5849 5852 5855 5857 5859
5874 5873 5871 5869 5868 5866 5864 5862 5860 5858 5855 5853 5851 5849 5847 5844 5842 5840 5838 5836 5834 5832 5831 5829 5828 5827 5826 5826 5826 5826 5827 5828 5829 5830 5830 5832 5834 5836 5839 5842 5846 5849 5852
5871 5870 5868 5866 5864 5862 5860 5857 5855 5852 5850 5847 5845 5842 5840 5837 5835 5832 5829 5827 5825 5823 5821 5819 5817 5816 5815 5814 5814 5814 5815 5817 5818 5819 5820 5822 5824 5826 5829 5832 5835 5839 5843
5868 5866 5864 5862 5860 5857 5855 5852 5850 5847 5844 5841 5838 5835 5832 5829 5826 5823 5820 5817 5814 5812 5809 5807 5805 5804 5802 5801 5801 5801 5801 5803 5805 5806 5808 5810 5812 5814 5817 5820 5824 5828 5832
5865 5863 5860 5858 5855 5853 5850 5847 5844 5841 5838 5834 5831 5827 5824 5820 5816 5813 5809 5805 5802 5799 5796 5793 5791 5789 5787 5786 5786 5785 5786 5787 5790 5792 5793 5795 5798 5800 5803 5807 5812 5816 5820
5861 5858 5856 5853 5850 5847 5844 5841 5837 5834 5830 5826 5822 5818 5814 5809 5805 5800 5796 5792 5787 5783 5780 5776 5773 5771 5769 5768 5767 5767 5768 5769 5772 5774 5776 5779 5782 5785 5788 5793 5798 5802 5807
5857 5854 5852 5849 5845 5842 5838 5834 5830 5826 5822 5817 5812 5808 5802 5797 5792 5787 5781 5776 5771 5766 5761 5756 5752 5749 5747 5745 5744 5744 5746 5748 5750 5753 5757 5761 5764 5767 5771 5777 5782 5787 5793
5852 5850 5847 5843 5839 5836 5831 5827 5823 5818 5813 5808 5803 5797 5791 5785 5779 5773 5766 5759 5753 5746 5740 5734 5728 5724 5721 5718 5717 5717 5718 5721 5725 5729 5734 5739 5742 5747 5752 5759 5765 5771 5777
5848 5845 5841 5838 5833 5829 5824 5820 5815 5809 5804 5798 5792 5786 5780 5773 5766 5759 5751 5743 5735 5726 5718 5710 5703 5696 5691 5688 5685 5685 5686 5690 5695 5701 5707 5713 5718 5724 5731 5738 5745 5752 5759
5843 5840 5836 5832 5827 5822 5817 5812 5806 5800 5795 5788 5782 5776 5768 5761 5753 5745 5735 5726 5716 5705 5695 5684 5674 5666 5659 5654 5651 5649 5650 5653 5658 5666 5674 5682 5690 5698 5706 5715 5723 5731 5740
5838 5834 5830 5825 5820 5814 5809 5803 5798 5791 5785 5779 5772 5764 5756 5748 5738 5729 5718 5707 5695 5683 5670 5657 5645 5634 5625 5618 5613 5611 5611 5613 5618 5626 5637 5647 5657 5668 5679 5689 5699 5708 5718
5832 5828 5823 5818 5812 5807 5801 5795 5789 5782 5776 5768 5761 5752 5744 5734 5723 5712 5699 5685 5671 5656 5641 5627 5614 5602 5592 5584 5577 5574 5572 5573 5578 5584 5595 5606 5619 5633 5647 5659 5671 5683 5694
5827 5822 5816 5811 5805 5799 5793 5787 5780 5773 5765 5757 5749 5739 5729 5718 5706 5692 5677 5660 5643 5626 5610 5595 5582 5570 5560 5552 5545 5540 5537 5537 5539 5544 5553 5565 5578 5594 5610 5626 5641 5655 5668
5821 5815 5810 5804 5798 5792 5785 5778 5771 5763 5755 5746 5736 5725 5713 5700 5686 5670 5653 5634 5615 5597 5579 5564 5552 5540 5531 5522 5516 5510 5506 5504 5505 5508 5514 5525 5538 5553 5571 5589 5607 5623 5639
5815 5809 5803 5797 5790 5784 5777 5769 5761 5753 5743 5733 5722 5710 5696 5682 5665 5647 5627 5607 5588 5569 5553 5539 5526 5515 5504 5494 5486 5479 5474 5471 5471 5474 5479 5488 5500 5514 5532 5551 5570 5589 5608
5808 5803 5796 5790 5783 5776 5768 5760 5751 5741 5731 5720 5707 5694 5679 5662 5644 5624 5603 5583 5564 5546 5530 5517 5503 5491 5479 5467 5457 5449 5441 5437 5436 5439 5445 5453 5464 5479 5495 5513 5533 5553 5573
5802 5796 5790 5783 5775 5767 5759 5750 5740 5730 5718 5706 5692 5677 5661 5643 5623 5602 5581 5561 5543 5527 5511 5496 5482 5468 5454 5441 5429 5419 5410 5403 5401 5403 5409 5418 5430 5445 5461 5477 5496 5516 5538
5796 5790 5783 5775 5767 5759 5749 5740 5729 5718 5705 5692 5677 5661 5643 5624 5603 5582 5562 5543 5525 5509 5493 5477 5463 5448 5431 5415 5404 5393 5382 5373 5368 5369 5373 5384 5398 5412 5428 5444 5461 5482 5505
5790 5783 5776 5768 5759 5750 5740 5729 5718 5706 5692 5678 5662 5645 5626 5606 5585 5564 5545 5526 5509 5493 5476 5459 5444 5429 5413 5395 5380 5369 5360 5347 5339 5338 5344 5354 5367 5380 5395 5411 5429 5450 5472
5784 5777 5769 5760 5751 5741 5730 5719 5707 5694 5680 5664 5648 5630 5610 5590 5568 5548 5529 5511 5494 5478 5461 5444 5427 5411 5396 5378 5360 5347 5337 5330 5320 5315 5319 5328 5339 5352 5368 5384 5402 5422 5444
5778 5770 5761 5752 5742 5731 5720 5708 5695 5682 5667 5651 5634 5615 5595 5574 5553 5533 5515 5497 5480 5463 5447 5430 5413 5396 5381 5367 5349 5333 5319 5311 5306 5302 5302 5309 5319 5331 5346 5363 5381 5399 5418
5772 5763 5754 5744 5733 5722 5710 5697 5684 5670 5655 5639 5621 5602 5582 5560 5540 5520 5502 5485 5468 5451 5434 5418 5401 5384 5368 5355 5342 5328 5315 5303 5296 5293 5293 5296 5304 5315 5329 5344 5361 5378 5397
5765 5756 5746 5735 5724 5712 5700 5687 5673 5659 5643 5627 5609 5590 5569 5549 5528 5509 5492 5475 5458 5441 5424 5408 5392 5375 5359 5345 5333 5322 5312 5303 5294 5288 5287 5289 5295 5304 5316 5330 5346 5363 5379
5759 5749 5738 5727 5715 5702 5689 5676 5662 5648 5632 5615 5597 5578 5558 5538 5519 5500 5483 5466 5449 5432 5416 5400 5384 5368 5353 5339 5327 5316 5308 5300 5293 5287 5285 5285 5289 5296 5307 5319 5333 5347 5361